timestamp,wind_dir_avg,wind_spd_avg,wind_spd_max_dir,wind_spd_gust,battery_voltage,lat,long
2022-09-15 00:04:00+00:00,214.0,3.8,216.0,3.98,12.57,47.59359,-54.27349
2022-09-15 00:14:01+00:00,212.0,2.23,214.0,2.47,12.49,47.59359,-54.27349
2022-09-15 00:24:01+00:00,165.0,2.25,179.0,2.83,12.49,47.59359,-54.27349
2022-09-15 00:34:01+00:00,157.0,3.48,140.0,4.34,12.49,47.59359,-54.27349
2022-09-15 00:44:01+00:00,171.0,4.1,176.0,4.53,12.49,47.59359,-54.27349
2022-09-15 00:54:01+00:00,192.0,4.04,201.0,4.96,12.49,47.59359,-54.27349
2022-09-15 01:04:01+00:00,201.0,7.22,202.0,8.41,12.49,47.59359,-54.27349
2022-09-15 01:14:01+00:00,213.0,3.12,209.0,4.46,12.49,47.59359,-54.27349
2022-09-15 01:24:01+00:00,219.0,3.04,219.0,3.84,12.49,47.59359,-54.27349
2022-09-15 01:34:01+00:00,235.0,2.05,226.0,2.73,12.49,47.59359,-54.27349
2022-09-15 01:44:01+00:00,257.0,2.5,261.0,2.78,12.49,47.59359,-54.27349
2022-09-15 01:54:01+00:00,202.0,1.02,208.0,1.98,12.49,47.59359,-54.27349
2022-09-15 02:04:01+00:00,139.0,1.27,144.0,2.06,12.49,47.59359,-54.27349
2022-09-15 02:14:00+00:00,122.0,1.89,123.0,2.15,12.49,47.59359,-54.27349
2022-09-15 02:24:00+00:00,105.0,3.01,113.0,3.78,12.49,47.59359,-54.27349
2022-09-15 02:34:00+00:00,116.0,2.18,132.0,3.76,12.49,47.59359,-54.27349
2022-09-15 02:44:00+00:00,92.0,1.32,120.0,1.74,12.49,47.59359,-54.27349
2022-09-15 02:54:00+00:00,111.0,1.45,108.0,2.03,12.49,47.59359,-54.27349
2022-09-15 03:04:00+00:00,37.0,2.14,39.0,2.81,12.49,47.59359,-54.27349
2022-09-15 03:14:00+00:00,62.0,2.68,68.0,3.44,12.49,47.59359,-54.27349
2022-09-15 03:24:00+00:00,61.0,1.67,58.0,2.07,12.49,47.59359,-54.27349
2022-09-15 03:34:00+00:00,58.0,0.65,67.0,1.0,12.49,47.59359,-54.27349
2022-09-15 03:44:00+00:00,81.0,2.15,83.0,2.51,12.49,47.59359,-54.27349
2022-09-15 03:54:00+00:00,107.0,1.08,121.0,1.71,12.49,47.59359,-54.27349
2022-09-15 04:04:00+00:00,53.0,1.89,52.0,2.34,12.49,47.59359,-54.27349
2022-09-15 04:14:01+00:00,64.0,1.35,54.0,1.53,12.41,47.59359,-54.27349
2022-09-15 04:24:01+00:00,85.0,1.38,75.0,1.85,12.41,47.59359,-54.27349
2022-09-15 04:34:01+00:00,93.0,0.78,105.0,1.16,12.41,47.59359,-54.27349
2022-09-15 04:44:01+00:00,139.0,1.13,145.0,1.36,12.41,47.59359,-54.27349
2022-09-15 04:54:01+00:00,155.0,0.92,158.0,1.21,12.41,47.59359,-54.27349
2022-09-15 05:04:01+00:00,159.0,1.38,156.0,2.28,12.41,47.59359,-54.27349
2022-09-15 05:14:01+00:00,161.0,3.14,161.0,3.58,12.41,47.59359,-54.27349
2022-09-15 05:24:01+00:00,167.0,4.23,166.0,4.79,12.41,47.59359,-54.27349
2022-09-15 05:34:01+00:00,165.0,3.99,164.0,4.68,12.41,47.59359,-54.27349
2022-09-15 05:44:01+00:00,157.0,3.92,158.0,4.23,12.41,47.59359,-54.27349
2022-09-15 05:54:01+00:00,146.0,2.36,147.0,3.0,12.41,47.59359,-54.27349
2022-09-15 06:04:01+00:00,150.0,3.67,157.0,4.25,12.41,47.59359,-54.27349
2022-09-15 06:14:00+00:00,169.0,3.49,149.0,3.99,12.41,47.59359,-54.27349
2022-09-15 06:24:00+00:00,155.0,2.9,148.0,3.39,12.41,47.59359,-54.27349
2022-09-15 06:34:00+00:00,174.0,3.09,152.0,3.6,12.41,47.59359,-54.27349
2022-09-15 06:44:00+00:00,152.0,2.65,148.0,3.41,12.41,47.59359,-54.27349
2022-09-15 06:54:00+00:00,146.0,2.32,146.0,2.75,12.41,47.59359,-54.27349
2022-09-15 07:04:00+00:00,139.0,1.97,144.0,2.29,12.41,47.59359,-54.27349
2022-09-15 07:14:00+00:00,133.0,1.71,136.0,2.23,12.41,47.59359,-54.27349
2022-09-15 07:24:00+00:00,138.0,1.19,149.0,1.66,12.41,47.59359,-54.27349
2022-09-15 07:34:00+00:00,62.0,0.86,65.0,1.11,12.41,47.59359,-54.27349
2022-09-15 07:44:00+00:00,37.0,0.73,38.0,1.09,12.41,47.59359,-54.27349
2022-09-15 07:54:00+00:00,45.0,1.58,46.0,1.88,12.41,47.59359,-54.27349
2022-09-15 08:04:00+00:00,73.0,1.07,69.0,1.26,12.41,47.59359,-54.27349
2022-09-15 08:14:00+00:00,161.0,0.34,195.0,0.72,12.41,47.59359,-54.27349
2022-09-15 08:24:00+00:00,210.0,1.08,214.0,2.35,12.41,47.59359,-54.27349
2022-09-15 08:34:00+00:00,207.0,4.92,208.0,5.32,12.41,47.59359,-54.27349
2022-09-15 08:44:00+00:00,209.0,6.11,211.0,6.81,12.41,47.59359,-54.27349
2022-09-15 08:54:00+00:00,204.0,6.06,209.0,6.5,12.41,47.59359,-54.27349
2022-09-15 09:04:00+00:00,204.0,5.7,207.0,6.78,12.41,47.59359,-54.27349
2022-09-15 09:14:00+00:00,214.0,4.42,216.0,5.14,12.33,47.59359,-54.27349
2022-09-15 09:24:00+00:00,234.0,4.72,242.0,5.54,12.33,47.59359,-54.27349
2022-09-15 09:34:00+00:00,213.0,3.58,214.0,4.11,12.33,47.59359,-54.27349
2022-09-15 09:44:00+00:00,212.0,5.4,212.0,5.65,12.33,47.59359,-54.27349
2022-09-15 09:54:00+00:00,222.0,5.88,224.0,6.4,12.33,47.59359,-54.27349
2022-09-15 10:04:00+00:00,211.0,5.11,213.0,5.8,12.33,47.59359,-54.27349
2022-09-15 10:14:01+00:00,224.0,6.73,228.0,8.34,12.41,47.59359,-54.27349
2022-09-15 10:24:01+00:00,223.0,5.53,221.0,6.21,12.41,47.59359,-54.27349
2022-09-15 10:34:01+00:00,219.0,6.55,236.0,8.22,12.41,47.59359,-54.27349
2022-09-15 10:44:01+00:00,219.0,5.44,212.0,6.54,12.41,47.59359,-54.27349
2022-09-15 10:54:01+00:00,219.0,5.38,218.0,6.0,12.41,47.59359,-54.27349
2022-09-15 11:04:01+00:00,221.0,6.57,222.0,7.57,12.41,47.59359,-54.27349
2022-09-15 11:14:00+00:00,221.0,6.41,224.0,7.49,12.73,47.59359,-54.27349
2022-09-15 11:24:00+00:00,218.0,7.54,224.0,8.76,12.73,47.59359,-54.27349
2022-09-15 11:34:00+00:00,213.0,8.0,211.0,9.01,12.73,47.59359,-54.27349
2022-09-15 11:44:00+00:00,218.0,8.78,225.0,10.37,12.73,47.59359,-54.27349
2022-09-15 11:54:00+00:00,215.0,7.5,219.0,8.32,12.73,47.59359,-54.27349
2022-09-15 12:04:00+00:00,213.0,7.39,217.0,8.28,12.73,47.59359,-54.27349
2022-09-15 12:14:00+00:00,211.0,6.85,209.0,7.6,13.29,47.59359,-54.27349
2022-09-15 12:24:00+00:00,218.0,7.61,219.0,8.82,13.29,47.59359,-54.27349
2022-09-15 12:34:00+00:00,202.0,6.13,203.0,6.73,13.29,47.59359,-54.27349
2022-09-15 12:44:00+00:00,208.0,7.36,209.0,7.94,13.29,47.59359,-54.27349
2022-09-15 12:54:00+00:00,209.0,6.56,211.0,6.98,13.29,47.59359,-54.27349
2022-09-15 13:04:00+00:00,207.0,7.48,209.0,8.09,13.29,47.59359,-54.27349
2022-09-15 13:14:01+00:00,208.0,7.13,208.0,7.9,13.68,47.59359,-54.27349
2022-09-15 13:24:01+00:00,209.0,7.91,216.0,9.46,13.68,47.59359,-54.27349
2022-09-15 13:34:01+00:00,205.0,7.66,198.0,10.02,13.68,47.59359,-54.27349
2022-09-15 13:44:01+00:00,209.0,7.43,209.0,8.38,13.68,47.59359,-54.27349
2022-09-15 13:54:01+00:00,211.0,6.7,215.0,7.58,13.68,47.59359,-54.27349
2022-09-15 14:04:01+00:00,211.0,5.08,208.0,5.61,13.68,47.59359,-54.27349
2022-09-15 14:14:01+00:00,209.0,5.6,206.0,5.99,14.24,47.59359,-54.27349
2022-09-15 14:24:01+00:00,227.0,5.0,227.0,6.03,14.24,47.59359,-54.27349
2022-09-15 14:34:01+00:00,270.0,7.52,272.0,8.05,14.24,47.59359,-54.27349
2022-09-15 14:44:01+00:00,263.0,4.76,266.0,5.85,14.24,47.59359,-54.27349
2022-09-15 14:54:01+00:00,260.0,5.69,265.0,6.47,14.24,47.59359,-54.27349
2022-09-15 15:04:01+00:00,255.0,8.78,256.0,11.19,14.24,47.59359,-54.27349
2022-09-15 15:14:01+00:00,257.0,8.85,258.0,9.56,13.68,47.59359,-54.27349
2022-09-15 15:24:01+00:00,256.0,9.13,258.0,11.94,13.68,47.59359,-54.27349
2022-09-15 15:34:01+00:00,274.0,9.8,274.0,11.84,13.68,47.59359,-54.27349
2022-09-15 15:44:01+00:00,261.0,8.68,260.0,9.45,13.68,47.59359,-54.27349
2022-09-15 15:54:01+00:00,264.0,7.19,264.0,8.99,13.68,47.59359,-54.27349
2022-09-15 16:04:01+00:00,260.0,10.86,257.0,12.5,13.68,47.59359,-54.27349
2022-09-15 16:14:00+00:00,253.0,8.97,259.0,10.91,14.4,47.59359,-54.27349
2022-09-15 16:24:00+00:00,254.0,8.15,254.0,8.91,14.4,47.59359,-54.27349
2022-09-15 16:34:00+00:00,266.0,9.13,263.0,10.74,14.4,47.59359,-54.27349
2022-09-15 16:44:00+00:00,258.0,9.55,257.0,11.73,14.4,47.59359,-54.27349
2022-09-15 16:54:00+00:00,262.0,7.01,266.0,7.92,14.4,47.59359,-54.27349
2022-09-15 17:04:00+00:00,256.0,7.46,261.0,7.89,14.4,47.59359,-54.27349
2022-09-15 17:14:00+00:00,267.0,7.25,267.0,8.6,14.32,47.59359,-54.27349
2022-09-15 17:24:00+00:00,263.0,8.52,264.0,9.07,14.32,47.59359,-54.27349
2022-09-15 17:34:00+00:00,263.0,7.5,266.0,8.13,14.32,47.59359,-54.27349
2022-09-15 17:44:00+00:00,260.0,6.86,267.0,7.46,14.32,47.59359,-54.27349
2022-09-15 17:54:00+00:00,254.0,7.3,254.0,7.93,14.32,47.59359,-54.27349
2022-09-15 18:04:00+00:00,253.0,7.08,255.0,8.44,14.32,47.59359,-54.27349
2022-09-15 18:14:00+00:00,257.0,9.16,259.0,9.75,14.16,47.59359,-54.27349
2022-09-15 18:24:00+00:00,263.0,8.34,264.0,10.21,14.16,47.59359,-54.27349
2022-09-15 18:34:00+00:00,262.0,8.14,262.0,8.91,14.16,47.59359,-54.27349
2022-09-15 18:44:00+00:00,252.0,8.04,256.0,9.27,14.16,47.59359,-54.27349
2022-09-15 18:54:00+00:00,257.0,8.42,258.0,9.24,14.16,47.59359,-54.27349
2022-09-15 19:04:00+00:00,251.0,7.27,256.0,7.97,14.16,47.59359,-54.27349
2022-09-15 19:14:01+00:00,249.0,7.32,247.0,8.16,13.53,47.59359,-54.27349
2022-09-15 19:24:01+00:00,258.0,6.9,259.0,7.66,13.53,47.59359,-54.27349
2022-09-15 19:34:01+00:00,252.0,6.45,251.0,6.84,13.53,47.59359,-54.27349
2022-09-15 19:44:01+00:00,251.0,6.65,252.0,7.22,13.53,47.59359,-54.27349
2022-09-15 19:54:01+00:00,255.0,7.84,253.0,8.47,13.53,47.59359,-54.27349
2022-09-15 20:04:01+00:00,219.0,6.68,228.0,7.5,13.53,47.59359,-54.27349
2022-09-15 20:14:00+00:00,220.0,6.1,222.0,7.1,13.76,47.59359,-54.27349
2022-09-15 20:24:00+00:00,214.0,6.09,214.0,6.99,13.76,47.59359,-54.27349
2022-09-15 20:34:00+00:00,214.0,7.52,217.0,8.59,13.76,47.59359,-54.27349
2022-09-15 20:44:00+00:00,207.0,7.06,209.0,7.69,13.76,47.59359,-54.27349
2022-09-15 20:54:00+00:00,208.0,6.36,212.0,6.84,13.76,47.59359,-54.27349
2022-09-15 21:04:00+00:00,205.0,6.61,207.0,7.42,13.76,47.59359,-54.27349
2022-09-15 21:14:01+00:00,214.0,5.35,215.0,5.95,13.37,47.59359,-54.27349
2022-09-15 21:24:01+00:00,216.0,4.94,217.0,5.51,13.37,47.59359,-54.27349
2022-09-15 21:34:01+00:00,222.0,5.22,225.0,5.76,13.37,47.59359,-54.27349
2022-09-15 21:44:01+00:00,220.0,5.58,233.0,7.02,13.37,47.59359,-54.27349
2022-09-15 21:54:01+00:00,226.0,3.87,220.0,4.93,13.37,47.59359,-54.27349
2022-09-15 22:04:01+00:00,211.0,4.3,215.0,5.16,13.37,47.59359,-54.27349
2022-09-15 22:14:00+00:00,209.0,5.03,209.0,5.87,12.81,47.59359,-54.27349
2022-09-15 22:24:00+00:00,209.0,4.63,211.0,5.0,12.81,47.59359,-54.27349
2022-09-15 22:34:00+00:00,196.0,5.12,201.0,5.62,12.81,47.59359,-54.27349
2022-09-15 22:44:00+00:00,199.0,5.54,198.0,6.13,12.81,47.59359,-54.27349
2022-09-15 22:54:00+00:00,209.0,5.77,206.0,6.37,12.81,47.59359,-54.27349
2022-09-15 23:04:00+00:00,214.0,5.53,214.0,6.33,12.81,47.59359,-54.27349
2022-09-15 23:14:00+00:00,200.0,6.37,195.0,7.6,12.57,47.59359,-54.27349
2022-09-15 23:24:00+00:00,210.0,5.99,212.0,6.4,12.57,47.59359,-54.27349
2022-09-15 23:34:00+00:00,226.0,6.26,227.0,6.8,12.57,47.59359,-54.27349
2022-09-15 23:44:00+00:00,224.0,5.94,231.0,6.94,12.57,47.59359,-54.27349
2022-09-15 23:54:00+00:00,198.0,6.11,203.0,6.81,12.57,47.59359,-54.27349
